<?xml version="1.0" encoding="UTF-8" standalone="no" ?>
<gpx xmlns="http://www.topografix.com/GPX/1/1" xmlns:xsi="http://www.w3.org/2001/XMLSchema-instance" xsi:schemaLocation="http://www.topografix.com/GPX/1/1 http://www.topografix.com/GPX/1/1/gpx.xsd" version="1.1" creator="VisuGPX - https://www.visugpx.com">
  <metadata>
    <name>Carantec_Tour_9-23km</name>
    <desc><![CDATA[gnerando idor: 8174953_9307603_9342987]]></desc>
  </metadata>
  <trk>
    <name><![CDATA[Carantec_16.6km-8174953]]></name>
    <extensions>
      <line xmlns="http://www.topografix.com/GPX/gpx_style/0/2">
        <color>0000FF</color>
        <width>4</width>
      </line>
    </extensions>
    <trkseg>
      <trkpt lat="48.65495" lon="-3.90242">
        <ele>7</ele>
        <time>2023-10-31T19:35:04Z</time>
      </trkpt>
      <trkpt lat="48.65724" lon="-3.90474">
        <ele>3</ele>
        <time>2023-10-31T19:41:12Z</time>
      </trkpt>
      <trkpt lat="48.6601" lon="-3.90602">
        <ele>4</ele>
        <time>2023-10-31T19:47:50Z</time>
      </trkpt>
      <trkpt lat="48.66302" lon="-3.90555">
        <ele>7</ele>
        <time>2023-10-31T19:54:22Z</time>
      </trkpt>
      <trkpt lat="48.66486" lon="-3.90272">
        <ele>7</ele>
        <time>2023-10-31T20:00:12Z</time>
      </trkpt>
      <trkpt lat="48.66469" lon="-3.9013">
        <ele>6</ele>
        <time>2023-10-31T20:02:19Z</time>
      </trkpt>
      <trkpt lat="48.66529" lon="-3.90023">
        <ele>11</ele>
        <time>2023-10-31T20:04:22Z</time>
      </trkpt>
      <trkpt lat="48.66648" lon="-3.90186">
        <ele>30</ele>
        <time>2023-10-31T20:07:57Z</time>
      </trkpt>
      <trkpt lat="48.66648" lon="-3.90032">
        <ele>31</ele>
        <time>2023-10-31T20:10:12Z</time>
      </trkpt>
      <trkpt lat="48.66546" lon="-3.89877">
        <ele>12</ele>
        <time>2023-10-31T20:13:25Z</time>
      </trkpt>
      <trkpt lat="48.66659" lon="-3.89504">
        <ele>13</ele>
        <time>2023-10-31T20:19:27Z</time>
      </trkpt>
      <trkpt lat="48.66648" lon="-3.89311">
        <ele>9</ele>
        <time>2023-10-31T20:22:18Z</time>
      </trkpt>
      <trkpt lat="48.66696" lon="-3.89083">
        <ele>7</ele>
        <time>2023-10-31T20:25:48Z</time>
      </trkpt>
      <trkpt lat="48.66886" lon="-3.88989">
        <ele>6</ele>
        <time>2023-10-31T20:30:15Z</time>
      </trkpt>
      <trkpt lat="48.66945" lon="-3.89062">
        <ele>18</ele>
        <time>2023-10-31T20:31:57Z</time>
      </trkpt>
      <trkpt lat="48.67098" lon="-3.89096">
        <ele>10</ele>
        <time>2023-10-31T20:35:23Z</time>
      </trkpt>
      <trkpt lat="48.67098" lon="-3.89328">
        <ele>20</ele>
        <time>2023-10-31T20:38:48Z</time>
      </trkpt>
      <trkpt lat="48.67158" lon="-3.89499">
        <ele>9</ele>
        <time>2023-10-31T20:41:38Z</time>
      </trkpt>
      <trkpt lat="48.6718" lon="-3.89645">
        <ele>19</ele>
        <time>2023-10-31T20:43:50Z</time>
      </trkpt>
      <trkpt lat="48.67243" lon="-3.89774">
        <ele>13</ele>
        <time>2023-10-31T20:46:12Z</time>
      </trkpt>
      <trkpt lat="48.67234" lon="-3.89881">
        <ele>10</ele>
        <time>2023-10-31T20:47:47Z</time>
      </trkpt>
      <trkpt lat="48.67104" lon="-3.89881">
        <ele>10</ele>
        <time>2023-10-31T20:50:40Z</time>
      </trkpt>
      <trkpt lat="48.6703" lon="-3.90135">
        <ele>12</ele>
        <time>2023-10-31T20:54:45Z</time>
      </trkpt>
      <trkpt lat="48.67036" lon="-3.90358">
        <ele>11</ele>
        <time>2023-10-31T20:58:02Z</time>
      </trkpt>
      <trkpt lat="48.66988" lon="-3.90577">
        <ele>11</ele>
        <time>2023-10-31T21:01:25Z</time>
      </trkpt>
      <trkpt lat="48.66923" lon="-3.9077">
        <ele>4</ele>
        <time>2023-10-31T21:04:36Z</time>
      </trkpt>
      <trkpt lat="48.66965" lon="-3.91057">
        <ele>7</ele>
        <time>2023-10-31T21:08:55Z</time>
      </trkpt>
      <trkpt lat="48.67042" lon="-3.9119">
        <ele>17</ele>
        <time>2023-10-31T21:11:31Z</time>
      </trkpt>
      <trkpt lat="48.67172" lon="-3.91255">
        <ele>20</ele>
        <time>2023-10-31T21:14:34Z</time>
      </trkpt>
      <trkpt lat="48.67265" lon="-3.91225">
        <ele>11</ele>
        <time>2023-10-31T21:16:40Z</time>
      </trkpt>
      <trkpt lat="48.67362" lon="-3.91358">
        <ele>8</ele>
        <time>2023-10-31T21:19:35Z</time>
      </trkpt>
      <trkpt lat="48.67316" lon="-3.91499">
        <ele>15</ele>
        <time>2023-10-31T21:21:54Z</time>
      </trkpt>
      <trkpt lat="48.67291" lon="-3.91727">
        <ele>17</ele>
        <time>2023-10-31T21:25:17Z</time>
      </trkpt>
      <trkpt lat="48.67345" lon="-3.91778">
        <ele>11</ele>
        <time>2023-10-31T21:26:42Z</time>
      </trkpt>
      <trkpt lat="48.67418" lon="-3.91937">
        <ele>6</ele>
        <time>2023-10-31T21:29:33Z</time>
      </trkpt>
      <trkpt lat="48.67535" lon="-3.92186">
        <ele>6</ele>
        <time>2023-10-31T21:34:02Z</time>
      </trkpt>
      <trkpt lat="48.67424" lon="-3.92349">
        <ele>3</ele>
        <time>2023-10-31T21:37:28Z</time>
      </trkpt>
      <trkpt lat="48.67467" lon="-3.92461">
        <ele>1</ele>
        <time>2023-10-31T21:39:23Z</time>
      </trkpt>
      <trkpt lat="48.68373" lon="-3.92233">
        <ele>5</ele>
        <time>2023-10-31T21:59:48Z</time>
      </trkpt>
      <trkpt lat="48.68634" lon="-3.92293">
        <ele>6</ele>
        <time>2023-10-31T22:05:41Z</time>
      </trkpt>
      <trkpt lat="48.6879" lon="-3.92272">
        <ele>7</ele>
        <time>2023-10-31T22:09:10Z</time>
      </trkpt>
      <trkpt lat="48.68827" lon="-3.92203">
        <ele>8</ele>
        <time>2023-10-31T22:10:28Z</time>
      </trkpt>
      <trkpt lat="48.68949" lon="-3.92461">
        <ele>5</ele>
        <time>2023-10-31T22:15:07Z</time>
      </trkpt>
      <trkpt lat="48.69051" lon="-3.92589">
        <ele>7</ele>
        <time>2023-10-31T22:18:04Z</time>
      </trkpt>
      <trkpt lat="48.69167" lon="-3.9243">
        <ele>16</ele>
        <time>2023-10-31T22:21:33Z</time>
      </trkpt>
      <trkpt lat="48.69328" lon="-3.92473">
        <ele>13</ele>
        <time>2023-10-31T22:25:11Z</time>
      </trkpt>
      <trkpt lat="48.69538" lon="-3.92572">
        <ele>6</ele>
        <time>2023-10-31T22:30:05Z</time>
      </trkpt>
      <trkpt lat="48.69696" lon="-3.92525">
        <ele>8</ele>
        <time>2023-10-31T22:33:39Z</time>
      </trkpt>
      <trkpt lat="48.6973" lon="-3.9234">
        <ele>6</ele>
        <time>2023-10-31T22:36:29Z</time>
      </trkpt>
      <trkpt lat="48.69796" lon="-3.92327">
        <ele>4</ele>
        <time>2023-10-31T22:37:57Z</time>
      </trkpt>
      <trkpt lat="48.69866" lon="-3.9243">
        <ele>5</ele>
        <time>2023-10-31T22:40:08Z</time>
      </trkpt>
      <trkpt lat="48.69889" lon="-3.92581">
        <ele>5</ele>
        <time>2023-10-31T22:42:24Z</time>
      </trkpt>
      <trkpt lat="48.69787" lon="-3.92598">
        <ele>8</ele>
        <time>2023-10-31T22:44:41Z</time>
      </trkpt>
      <trkpt lat="48.69677" lon="-3.92503">
        <ele>7</ele>
        <time>2023-10-31T22:47:30Z</time>
      </trkpt>
      <trkpt lat="48.69379" lon="-3.92542">
        <ele>9</ele>
        <time>2023-10-31T22:54:09Z</time>
      </trkpt>
      <trkpt lat="48.69133" lon="-3.9243">
        <ele>13</ele>
        <time>2023-10-31T22:59:52Z</time>
      </trkpt>
      <trkpt lat="48.69034" lon="-3.92572">
        <ele>7</ele>
        <time>2023-10-31T23:02:54Z</time>
      </trkpt>
      <trkpt lat="48.68929" lon="-3.92499">
        <ele>6</ele>
        <time>2023-10-31T23:05:28Z</time>
      </trkpt>
      <trkpt lat="48.68787" lon="-3.92598">
        <ele>5</ele>
        <time>2023-10-31T23:08:57Z</time>
      </trkpt>
      <trkpt lat="48.68354" lon="-3.92212">
        <ele>6</ele>
        <time>2023-10-31T23:20:07Z</time>
      </trkpt>
      <trkpt lat="48.67441" lon="-3.92486">
        <ele>1</ele>
        <time>2023-10-31T23:40:49Z</time>
      </trkpt>
      <trkpt lat="48.67404" lon="-3.92297">
        <ele>7</ele>
        <time>2023-10-31T23:43:43Z</time>
      </trkpt>
      <trkpt lat="48.67197" lon="-3.92285">
        <ele>6</ele>
        <time>2023-10-31T23:48:19Z</time>
      </trkpt>
      <trkpt lat="48.67025" lon="-3.92323">
        <ele>9</ele>
        <time>2023-10-31T23:52:11Z</time>
      </trkpt>
      <trkpt lat="48.66823" lon="-3.92521">
        <ele>5</ele>
        <time>2023-10-31T23:57:32Z</time>
      </trkpt>
      <trkpt lat="48.66738" lon="-3.92555">
        <ele>5</ele>
        <time>2023-10-31T23:59:30Z</time>
      </trkpt>
      <trkpt lat="48.66616" lon="-3.92675">
        <ele>4</ele>
        <time>2023-11-01T00:02:44Z</time>
      </trkpt>
      <trkpt lat="48.66506" lon="-3.92709">
        <ele>5</ele>
        <time>2023-11-01T00:05:14Z</time>
      </trkpt>
      <trkpt lat="48.66506" lon="-3.92486">
        <ele>20</ele>
        <time>2023-11-01T00:08:30Z</time>
      </trkpt>
      <trkpt lat="48.66444" lon="-3.92117">
        <ele>40</ele>
        <time>2023-11-01T00:14:06Z</time>
      </trkpt>
      <trkpt lat="48.66412" lon="-3.91637">
        <ele>47</ele>
        <time>2023-11-01T00:21:11Z</time>
      </trkpt>
      <trkpt lat="48.66273" lon="-3.91598">
        <ele>51</ele>
        <time>2023-11-01T00:24:20Z</time>
      </trkpt>
      <trkpt lat="48.6597" lon="-3.91396">
        <ele>56</ele>
        <time>2023-11-01T00:31:41Z</time>
      </trkpt>
      <trkpt lat="48.65981" lon="-3.91233">
        <ele>55</ele>
        <time>2023-11-01T00:34:06Z</time>
      </trkpt>
      <trkpt lat="48.65789" lon="-3.91195">
        <ele>59</ele>
        <time>2023-11-01T00:38:24Z</time>
      </trkpt>
      <trkpt lat="48.65681" lon="-3.91049">
        <ele>60</ele>
        <time>2023-11-01T00:41:38Z</time>
      </trkpt>
      <trkpt lat="48.6563" lon="-3.911">
        <ele>59</ele>
        <time>2023-11-01T00:42:59Z</time>
      </trkpt>
      <trkpt lat="48.65329" lon="-3.90963">
        <ele>62</ele>
        <time>2023-11-01T00:49:59Z</time>
      </trkpt>
      <trkpt lat="48.65219" lon="-3.91006">
        <ele>57</ele>
        <time>2023-11-01T00:52:30Z</time>
      </trkpt>
      <trkpt lat="48.65259" lon="-3.90688">
        <ele>60</ele>
        <time>2023-11-01T00:57:15Z</time>
      </trkpt>
      <trkpt lat="48.65301" lon="-3.9071">
        <ele>60</ele>
        <time>2023-11-01T00:58:15Z</time>
      </trkpt>
      <trkpt lat="48.65335" lon="-3.90551">
        <ele>60</ele>
        <time>2023-11-01T01:00:42Z</time>
      </trkpt>
      <trkpt lat="48.65406" lon="-3.90499">
        <ele>51</ele>
        <time>2023-11-01T01:02:27Z</time>
      </trkpt>
      <trkpt lat="48.65473" lon="-3.90236">
        <ele>9</ele>
        <time>2023-11-01T01:06:36Z</time>
      </trkpt>
    </trkseg>
  </trk>
  <trk>
    <name><![CDATA[Carantec_TourPR_23.2km-9307603]]></name>
    <extensions>
      <line xmlns="http://www.topografix.com/GPX/gpx_style/0/2">
        <color>00FF00</color>
        <width>4</width>
      </line>
    </extensions>
    <trkseg>
      <trkpt lat="48.65514" lon="-3.90249">
        <ele>6</ele>
        <time>2023-10-31T19:34:44Z</time>
      </trkpt>
      <trkpt lat="48.6586" lon="-3.90532">
        <ele>2</ele>
        <time>2023-10-31T19:43:29Z</time>
      </trkpt>
      <trkpt lat="48.66262" lon="-3.90575">
        <ele>7</ele>
        <time>2023-10-31T19:52:27Z</time>
      </trkpt>
      <trkpt lat="48.66449" lon="-3.90369">
        <ele>6</ele>
        <time>2023-10-31T19:57:35Z</time>
      </trkpt>
      <trkpt lat="48.66483" lon="-3.90241">
        <ele>7</ele>
        <time>2023-10-31T19:59:37Z</time>
      </trkpt>
      <trkpt lat="48.66478" lon="-3.90121">
        <ele>7</ele>
        <time>2023-10-31T20:01:23Z</time>
      </trkpt>
      <trkpt lat="48.66517" lon="-3.90026">
        <ele>9</ele>
        <time>2023-10-31T20:03:01Z</time>
      </trkpt>
      <trkpt lat="48.66614" lon="-3.90198">
        <ele>27</ele>
        <time>2023-10-31T20:06:21Z</time>
      </trkpt>
      <trkpt lat="48.66687" lon="-3.89846">
        <ele>38</ele>
        <time>2023-10-31T20:11:46Z</time>
      </trkpt>
      <trkpt lat="48.66835" lon="-3.89477">
        <ele>45</ele>
        <time>2023-10-31T20:18:06Z</time>
      </trkpt>
      <trkpt lat="48.66761" lon="-3.89391">
        <ele>36</ele>
        <time>2023-10-31T20:20:11Z</time>
      </trkpt>
      <trkpt lat="48.66648" lon="-3.89365">
        <ele>10</ele>
        <time>2023-10-31T20:22:43Z</time>
      </trkpt>
      <trkpt lat="48.66699" lon="-3.89082">
        <ele>8</ele>
        <time>2023-10-31T20:27:02Z</time>
      </trkpt>
      <trkpt lat="48.66886" lon="-3.88979">
        <ele>5</ele>
        <time>2023-10-31T20:31:27Z</time>
      </trkpt>
      <trkpt lat="48.6696" lon="-3.89073">
        <ele>19</ele>
        <time>2023-10-31T20:33:36Z</time>
      </trkpt>
      <trkpt lat="48.67113" lon="-3.89013">
        <ele>3</ele>
        <time>2023-10-31T20:37:07Z</time>
      </trkpt>
      <trkpt lat="48.67107" lon="-3.89297">
        <ele>16</ele>
        <time>2023-10-31T20:41:18Z</time>
      </trkpt>
      <trkpt lat="48.67147" lon="-3.8958">
        <ele>20</ele>
        <time>2023-10-31T20:45:33Z</time>
      </trkpt>
      <trkpt lat="48.67237" lon="-3.89734">
        <ele>12</ele>
        <time>2023-10-31T20:48:34Z</time>
      </trkpt>
      <trkpt lat="48.6722" lon="-3.89837">
        <ele>15</ele>
        <time>2023-10-31T20:50:07Z</time>
      </trkpt>
      <trkpt lat="48.67113" lon="-3.8988">
        <ele>10</ele>
        <time>2023-10-31T20:52:35Z</time>
      </trkpt>
      <trkpt lat="48.67045" lon="-3.90146">
        <ele>9</ele>
        <time>2023-10-31T20:56:47Z</time>
      </trkpt>
      <trkpt lat="48.67028" lon="-3.90344">
        <ele>14</ele>
        <time>2023-10-31T20:59:43Z</time>
      </trkpt>
      <trkpt lat="48.66999" lon="-3.90575">
        <ele>11</ele>
        <time>2023-10-31T21:03:10Z</time>
      </trkpt>
      <trkpt lat="48.6692" lon="-3.90747">
        <ele>4</ele>
        <time>2023-10-31T21:06:14Z</time>
      </trkpt>
      <trkpt lat="48.66948" lon="-3.90987">
        <ele>6</ele>
        <time>2023-10-31T21:09:49Z</time>
      </trkpt>
      <trkpt lat="48.67033" lon="-3.91168">
        <ele>13</ele>
        <time>2023-10-31T21:13:05Z</time>
      </trkpt>
      <trkpt lat="48.67181" lon="-3.91211">
        <ele>11</ele>
        <time>2023-10-31T21:16:26Z</time>
      </trkpt>
      <trkpt lat="48.67345" lon="-3.91296">
        <ele>6</ele>
        <time>2023-10-31T21:20:17Z</time>
      </trkpt>
      <trkpt lat="48.67351" lon="-3.91468">
        <ele>10</ele>
        <time>2023-10-31T21:22:49Z</time>
      </trkpt>
      <trkpt lat="48.67283" lon="-3.91726">
        <ele>18</ele>
        <time>2023-10-31T21:26:54Z</time>
      </trkpt>
      <trkpt lat="48.67362" lon="-3.91889">
        <ele>12</ele>
        <time>2023-10-31T21:29:52Z</time>
      </trkpt>
      <trkpt lat="48.67538" lon="-3.92155">
        <ele>6</ele>
        <time>2023-10-31T21:35:24Z</time>
      </trkpt>
      <trkpt lat="48.6743" lon="-3.92301">
        <ele>6</ele>
        <time>2023-10-31T21:38:37Z</time>
      </trkpt>
      <trkpt lat="48.6747" lon="-3.92481">
        <ele>1</ele>
        <time>2023-10-31T21:41:24Z</time>
      </trkpt>
      <trkpt lat="48.68354" lon="-3.92249">
        <ele>5</ele>
        <time>2023-10-31T22:01:22Z</time>
      </trkpt>
      <trkpt lat="48.68654" lon="-3.92283">
        <ele>5</ele>
        <time>2023-10-31T22:08:03Z</time>
      </trkpt>
      <trkpt lat="48.6883" lon="-3.92189">
        <ele>8</ele>
        <time>2023-10-31T22:12:12Z</time>
      </trkpt>
      <trkpt lat="48.6896" lon="-3.92455">
        <ele>4</ele>
        <time>2023-10-31T22:17:04Z</time>
      </trkpt>
      <trkpt lat="48.69056" lon="-3.92575">
        <ele>8</ele>
        <time>2023-10-31T22:19:50Z</time>
      </trkpt>
      <trkpt lat="48.69255" lon="-3.92421">
        <ele>18</ele>
        <time>2023-10-31T22:24:48Z</time>
      </trkpt>
      <trkpt lat="48.69521" lon="-3.92567">
        <ele>6</ele>
        <time>2023-10-31T22:31:06Z</time>
      </trkpt>
      <trkpt lat="48.69714" lon="-3.9255">
        <ele>8</ele>
        <time>2023-10-31T22:35:24Z</time>
      </trkpt>
      <trkpt lat="48.69731" lon="-3.92318">
        <ele>5</ele>
        <time>2023-10-31T22:38:49Z</time>
      </trkpt>
      <trkpt lat="48.69929" lon="-3.92532">
        <ele>3</ele>
        <time>2023-10-31T22:44:14Z</time>
      </trkpt>
      <trkpt lat="48.69776" lon="-3.92713">
        <ele>3</ele>
        <time>2023-10-31T22:48:33Z</time>
      </trkpt>
      <trkpt lat="48.69698" lon="-3.92524">
        <ele>8</ele>
        <time>2023-10-31T22:51:49Z</time>
      </trkpt>
      <trkpt lat="48.69541" lon="-3.92556">
        <ele>6</ele>
        <time>2023-10-31T22:55:20Z</time>
      </trkpt>
      <trkpt lat="48.69392" lon="-3.92541">
        <ele>9</ele>
        <time>2023-10-31T22:58:40Z</time>
      </trkpt>
      <trkpt lat="48.69255" lon="-3.92444">
        <ele>17</ele>
        <time>2023-10-31T23:02:02Z</time>
      </trkpt>
      <trkpt lat="48.69156" lon="-3.92459">
        <ele>16</ele>
        <time>2023-10-31T23:04:14Z</time>
      </trkpt>
      <trkpt lat="48.69065" lon="-3.92605">
        <ele>8</ele>
        <time>2023-10-31T23:07:11Z</time>
      </trkpt>
      <trkpt lat="48.68937" lon="-3.925">
        <ele>6</ele>
        <time>2023-10-31T23:10:25Z</time>
      </trkpt>
      <trkpt lat="48.68784" lon="-3.92588">
        <ele>5</ele>
        <time>2023-10-31T23:14:04Z</time>
      </trkpt>
      <trkpt lat="48.68678" lon="-3.92509">
        <ele>8</ele>
        <time>2023-10-31T23:16:42Z</time>
      </trkpt>
      <trkpt lat="48.68535" lon="-3.92365">
        <ele>4</ele>
        <time>2023-10-31T23:20:31Z</time>
      </trkpt>
      <trkpt lat="48.68369" lon="-3.92223">
        <ele>6</ele>
        <time>2023-10-31T23:24:45Z</time>
      </trkpt>
      <trkpt lat="48.68087" lon="-3.92369">
        <ele>5</ele>
        <time>2023-10-31T23:31:23Z</time>
      </trkpt>
      <trkpt lat="48.67465" lon="-3.92499">
        <ele>1</ele>
        <time>2023-10-31T23:45:21Z</time>
      </trkpt>
      <trkpt lat="48.67413" lon="-3.92318">
        <ele>5</ele>
        <time>2023-10-31T23:48:15Z</time>
      </trkpt>
      <trkpt lat="48.67175" lon="-3.92275">
        <ele>7</ele>
        <time>2023-10-31T23:53:34Z</time>
      </trkpt>
      <trkpt lat="48.67051" lon="-3.92336">
        <ele>6</ele>
        <time>2023-10-31T23:56:28Z</time>
      </trkpt>
      <trkpt lat="48.66835" lon="-3.92525">
        <ele>5</ele>
        <time>2023-11-01T00:02:01Z</time>
      </trkpt>
      <trkpt lat="48.66635" lon="-3.92677">
        <ele>3</ele>
        <time>2023-11-01T00:07:00Z</time>
      </trkpt>
      <trkpt lat="48.66349" lon="-3.92814">
        <ele>2</ele>
        <time>2023-11-01T00:13:40Z</time>
      </trkpt>
      <trkpt lat="48.6612" lon="-3.92785">
        <ele>5</ele>
        <time>2023-11-01T00:18:47Z</time>
      </trkpt>
      <trkpt lat="48.65782" lon="-3.9303">
        <ele>4</ele>
        <time>2023-11-01T00:27:07Z</time>
      </trkpt>
      <trkpt lat="48.65658" lon="-3.93629">
        <ele>6</ele>
        <time>2023-11-01T00:36:20Z</time>
      </trkpt>
      <trkpt lat="48.6542" lon="-3.9394">
        <ele>15</ele>
        <time>2023-11-01T00:43:20Z</time>
      </trkpt>
      <trkpt lat="48.65377" lon="-3.94077">
        <ele>18</ele>
        <time>2023-11-01T00:45:34Z</time>
      </trkpt>
      <trkpt lat="48.65067" lon="-3.94149">
        <ele>39</ele>
        <time>2023-11-01T00:52:32Z</time>
      </trkpt>
      <trkpt lat="48.65114" lon="-3.93904">
        <ele>39</ele>
        <time>2023-11-01T00:56:17Z</time>
      </trkpt>
      <trkpt lat="48.6491" lon="-3.93772">
        <ele>40</ele>
        <time>2023-11-01T01:01:13Z</time>
      </trkpt>
      <trkpt lat="48.64785" lon="-3.93856">
        <ele>40</ele>
        <time>2023-11-01T01:04:16Z</time>
      </trkpt>
      <trkpt lat="48.64607" lon="-3.93856">
        <ele>37</ele>
        <time>2023-11-01T01:08:13Z</time>
      </trkpt>
      <trkpt lat="48.64541" lon="-3.93761">
        <ele>32</ele>
        <time>2023-11-01T01:10:15Z</time>
      </trkpt>
      <trkpt lat="48.64579" lon="-3.9366">
        <ele>36</ele>
        <time>2023-11-01T01:11:57Z</time>
      </trkpt>
      <trkpt lat="48.64557" lon="-3.93528">
        <ele>35</ele>
        <time>2023-11-01T01:13:57Z</time>
      </trkpt>
      <trkpt lat="48.6439" lon="-3.93528">
        <ele>23</ele>
        <time>2023-11-01T01:17:40Z</time>
      </trkpt>
      <trkpt lat="48.64366" lon="-3.92482">
        <ele>54</ele>
        <time>2023-11-01T01:33:03Z</time>
      </trkpt>
      <trkpt lat="48.64139" lon="-3.92557">
        <ele>51</ele>
        <time>2023-11-01T01:38:13Z</time>
      </trkpt>
      <trkpt lat="48.64135" lon="-3.92261">
        <ele>61</ele>
        <time>2023-11-01T01:42:34Z</time>
      </trkpt>
      <trkpt lat="48.64022" lon="-3.92259">
        <ele>60</ele>
        <time>2023-11-01T01:45:05Z</time>
      </trkpt>
      <trkpt lat="48.64029" lon="-3.92127">
        <ele>63</ele>
        <time>2023-11-01T01:47:02Z</time>
      </trkpt>
      <trkpt lat="48.6398" lon="-3.92084">
        <ele>64</ele>
        <time>2023-11-01T01:48:17Z</time>
      </trkpt>
      <trkpt lat="48.63974" lon="-3.91936">
        <ele>66</ele>
        <time>2023-11-01T01:50:28Z</time>
      </trkpt>
      <trkpt lat="48.64043" lon="-3.91835">
        <ele>67</ele>
        <time>2023-11-01T01:52:36Z</time>
      </trkpt>
      <trkpt lat="48.64031" lon="-3.91689">
        <ele>64</ele>
        <time>2023-11-01T01:54:46Z</time>
      </trkpt>
      <trkpt lat="48.64097" lon="-3.9148">
        <ele>58</ele>
        <time>2023-11-01T01:58:10Z</time>
      </trkpt>
      <trkpt lat="48.6422" lon="-3.91328">
        <ele>55</ele>
        <time>2023-11-01T02:01:42Z</time>
      </trkpt>
      <trkpt lat="48.64208" lon="-3.91136">
        <ele>49</ele>
        <time>2023-11-01T02:04:32Z</time>
      </trkpt>
      <trkpt lat="48.64174" lon="-3.90977">
        <ele>46</ele>
        <time>2023-11-01T02:06:59Z</time>
      </trkpt>
      <trkpt lat="48.64104" lon="-3.90872">
        <ele>48</ele>
        <time>2023-11-01T02:09:11Z</time>
      </trkpt>
      <trkpt lat="48.64121" lon="-3.90808">
        <ele>46</ele>
        <time>2023-11-01T02:10:12Z</time>
      </trkpt>
      <trkpt lat="48.64025" lon="-3.90666">
        <ele>40</ele>
        <time>2023-11-01T02:13:11Z</time>
      </trkpt>
      <trkpt lat="48.63937" lon="-3.90663">
        <ele>46</ele>
        <time>2023-11-01T02:15:08Z</time>
      </trkpt>
      <trkpt lat="48.63901" lon="-3.90487">
        <ele>44</ele>
        <time>2023-11-01T02:17:51Z</time>
      </trkpt>
      <trkpt lat="48.63804" lon="-3.90349">
        <ele>42</ele>
        <time>2023-11-01T02:20:48Z</time>
      </trkpt>
      <trkpt lat="48.63835" lon="-3.90264">
        <ele>37</ele>
        <time>2023-11-01T02:22:14Z</time>
      </trkpt>
      <trkpt lat="48.63665" lon="-3.89942">
        <ele>22</ele>
        <time>2023-11-01T02:28:18Z</time>
      </trkpt>
      <trkpt lat="48.63793" lon="-3.89817">
        <ele>17</ele>
        <time>2023-11-01T02:31:41Z</time>
      </trkpt>
      <trkpt lat="48.63858" lon="-3.89517">
        <ele>15</ele>
        <time>2023-11-01T02:36:19Z</time>
      </trkpt>
      <trkpt lat="48.64307" lon="-3.89293">
        <ele>6</ele>
        <time>2023-11-01T02:46:50Z</time>
      </trkpt>
      <trkpt lat="48.64329" lon="-3.89349">
        <ele>4</ele>
        <time>2023-11-01T02:47:48Z</time>
      </trkpt>
      <trkpt lat="48.64641" lon="-3.89782">
        <ele>15</ele>
        <time>2023-11-01T02:57:12Z</time>
      </trkpt>
      <trkpt lat="48.64725" lon="-3.89843">
        <ele>17</ele>
        <time>2023-11-01T02:59:17Z</time>
      </trkpt>
      <trkpt lat="48.64897" lon="-3.89831">
        <ele>5</ele>
        <time>2023-11-01T03:03:07Z</time>
      </trkpt>
      <trkpt lat="48.65112" lon="-3.90059">
        <ele>13</ele>
        <time>2023-11-01T03:08:57Z</time>
      </trkpt>
      <trkpt lat="48.65316" lon="-3.90226">
        <ele>15</ele>
        <time>2023-11-01T03:14:06Z</time>
      </trkpt>
      <trkpt lat="48.65513" lon="-3.90249">
        <ele>6</ele>
        <time>2023-11-01T03:18:30Z</time>
      </trkpt>
    </trkseg>
  </trk>
  <trk>
    <name><![CDATA[Carantec_RecoMixte-9342987]]></name>
    <extensions>
      <line xmlns="http://www.topografix.com/GPX/gpx_style/0/2">
        <color>FF0000</color>
        <width>4</width>
      </line>
    </extensions>
    <trkseg>
      <trkpt lat="48.65449" lon="-3.90243">
        <ele>12</ele>
        <time>2023-10-31T19:34:25Z</time>
      </trkpt>
      <trkpt lat="48.65456" lon="-3.90284">
        <ele>18</ele>
        <time>2023-10-31T19:35:02Z</time>
      </trkpt>
      <trkpt lat="48.65431" lon="-3.90331">
        <ele>32</ele>
        <time>2023-10-31T19:35:56Z</time>
      </trkpt>
      <trkpt lat="48.65404" lon="-3.90433">
        <ele>47</ele>
        <time>2023-10-31T19:37:32Z</time>
      </trkpt>
      <trkpt lat="48.65378" lon="-3.90536">
        <ele>55</ele>
        <time>2023-10-31T19:39:10Z</time>
      </trkpt>
      <trkpt lat="48.65332" lon="-3.90621">
        <ele>59</ele>
        <time>2023-10-31T19:40:46Z</time>
      </trkpt>
      <trkpt lat="48.653" lon="-3.90719">
        <ele>60</ele>
        <time>2023-10-31T19:42:23Z</time>
      </trkpt>
      <trkpt lat="48.65239" lon="-3.90776">
        <ele>60</ele>
        <time>2023-10-31T19:43:58Z</time>
      </trkpt>
      <trkpt lat="48.65228" lon="-3.90884">
        <ele>61</ele>
        <time>2023-10-31T19:45:35Z</time>
      </trkpt>
      <trkpt lat="48.65219" lon="-3.90993">
        <ele>58</ele>
        <time>2023-10-31T19:47:12Z</time>
      </trkpt>
      <trkpt lat="48.65152" lon="-3.91032">
        <ele>55</ele>
        <time>2023-10-31T19:48:47Z</time>
      </trkpt>
      <trkpt lat="48.65086" lon="-3.90985">
        <ele>53</ele>
        <time>2023-10-31T19:50:25Z</time>
      </trkpt>
      <trkpt lat="48.65015" lon="-3.91007">
        <ele>53</ele>
        <time>2023-10-31T19:52:02Z</time>
      </trkpt>
      <trkpt lat="48.64944" lon="-3.91033">
        <ele>53</ele>
        <time>2023-10-31T19:53:39Z</time>
      </trkpt>
      <trkpt lat="48.64874" lon="-3.91061">
        <ele>55</ele>
        <time>2023-10-31T19:55:16Z</time>
      </trkpt>
      <trkpt lat="48.64804" lon="-3.91093">
        <ele>58</ele>
        <time>2023-10-31T19:56:53Z</time>
      </trkpt>
      <trkpt lat="48.64736" lon="-3.91129">
        <ele>59</ele>
        <time>2023-10-31T19:58:29Z</time>
      </trkpt>
      <trkpt lat="48.64664" lon="-3.91148">
        <ele>60</ele>
        <time>2023-10-31T20:00:07Z</time>
      </trkpt>
      <trkpt lat="48.64588" lon="-3.91173">
        <ele>60</ele>
        <time>2023-10-31T20:01:51Z</time>
      </trkpt>
      <trkpt lat="48.64576" lon="-3.91226">
        <ele>61</ele>
        <time>2023-10-31T20:02:40Z</time>
      </trkpt>
      <trkpt lat="48.64505" lon="-3.91251">
        <ele>62</ele>
        <time>2023-10-31T20:04:17Z</time>
      </trkpt>
      <trkpt lat="48.64434" lon="-3.91275">
        <ele>62</ele>
        <time>2023-10-31T20:05:54Z</time>
      </trkpt>
      <trkpt lat="48.64363" lon="-3.91299">
        <ele>61</ele>
        <time>2023-10-31T20:07:31Z</time>
      </trkpt>
      <trkpt lat="48.64291" lon="-3.91322">
        <ele>59</ele>
        <time>2023-10-31T20:09:10Z</time>
      </trkpt>
      <trkpt lat="48.64222" lon="-3.91352">
        <ele>56</ele>
        <time>2023-10-31T20:10:45Z</time>
      </trkpt>
      <trkpt lat="48.64231" lon="-3.9146">
        <ele>59</ele>
        <time>2023-10-31T20:12:21Z</time>
      </trkpt>
      <trkpt lat="48.6425" lon="-3.91566">
        <ele>63</ele>
        <time>2023-10-31T20:13:58Z</time>
      </trkpt>
      <trkpt lat="48.64295" lon="-3.91652">
        <ele>65</ele>
        <time>2023-10-31T20:15:35Z</time>
      </trkpt>
      <trkpt lat="48.64348" lon="-3.91725">
        <ele>66</ele>
        <time>2023-10-31T20:17:11Z</time>
      </trkpt>
      <trkpt lat="48.64384" lon="-3.91821">
        <ele>66</ele>
        <time>2023-10-31T20:18:48Z</time>
      </trkpt>
      <trkpt lat="48.64399" lon="-3.91928">
        <ele>65</ele>
        <time>2023-10-31T20:20:24Z</time>
      </trkpt>
      <trkpt lat="48.64395" lon="-3.92037">
        <ele>63</ele>
        <time>2023-10-31T20:22:01Z</time>
      </trkpt>
      <trkpt lat="48.64384" lon="-3.92145">
        <ele>61</ele>
        <time>2023-10-31T20:23:37Z</time>
      </trkpt>
      <trkpt lat="48.64378" lon="-3.92254">
        <ele>58</ele>
        <time>2023-10-31T20:25:13Z</time>
      </trkpt>
      <trkpt lat="48.64366" lon="-3.92362">
        <ele>56</ele>
        <time>2023-10-31T20:26:50Z</time>
      </trkpt>
      <trkpt lat="48.64369" lon="-3.92471">
        <ele>54</ele>
        <time>2023-10-31T20:28:26Z</time>
      </trkpt>
      <trkpt lat="48.64361" lon="-3.92579">
        <ele>53</ele>
        <time>2023-10-31T20:30:02Z</time>
      </trkpt>
      <trkpt lat="48.64349" lon="-3.92688">
        <ele>51</ele>
        <time>2023-10-31T20:31:40Z</time>
      </trkpt>
      <trkpt lat="48.64354" lon="-3.92798">
        <ele>49</ele>
        <time>2023-10-31T20:33:17Z</time>
      </trkpt>
      <trkpt lat="48.64383" lon="-3.929">
        <ele>46</ele>
        <time>2023-10-31T20:34:55Z</time>
      </trkpt>
      <trkpt lat="48.64427" lon="-3.92987">
        <ele>44</ele>
        <time>2023-10-31T20:36:31Z</time>
      </trkpt>
      <trkpt lat="48.64472" lon="-3.93073">
        <ele>41</ele>
        <time>2023-10-31T20:38:08Z</time>
      </trkpt>
      <trkpt lat="48.64514" lon="-3.93161">
        <ele>39</ele>
        <time>2023-10-31T20:39:44Z</time>
      </trkpt>
      <trkpt lat="48.6454" lon="-3.93265">
        <ele>37</ele>
        <time>2023-10-31T20:41:22Z</time>
      </trkpt>
      <trkpt lat="48.64546" lon="-3.93375">
        <ele>35</ele>
        <time>2023-10-31T20:42:59Z</time>
      </trkpt>
      <trkpt lat="48.64545" lon="-3.93485">
        <ele>34</ele>
        <time>2023-10-31T20:44:36Z</time>
      </trkpt>
      <trkpt lat="48.64546" lon="-3.93527">
        <ele>34</ele>
        <time>2023-10-31T20:45:13Z</time>
      </trkpt>
      <trkpt lat="48.64574" lon="-3.93521">
        <ele>36</ele>
        <time>2023-10-31T20:45:51Z</time>
      </trkpt>
      <trkpt lat="48.646" lon="-3.93526">
        <ele>37</ele>
        <time>2023-10-31T20:46:26Z</time>
      </trkpt>
      <trkpt lat="48.64638" lon="-3.93557">
        <ele>37</ele>
        <time>2023-10-31T20:47:23Z</time>
      </trkpt>
      <trkpt lat="48.64702" lon="-3.93608">
        <ele>38</ele>
        <time>2023-10-31T20:49:00Z</time>
      </trkpt>
      <trkpt lat="48.64765" lon="-3.93663">
        <ele>39</ele>
        <time>2023-10-31T20:50:37Z</time>
      </trkpt>
      <trkpt lat="48.64831" lon="-3.93708">
        <ele>39</ele>
        <time>2023-10-31T20:52:14Z</time>
      </trkpt>
      <trkpt lat="48.64896" lon="-3.93758">
        <ele>40</ele>
        <time>2023-10-31T20:53:51Z</time>
      </trkpt>
      <trkpt lat="48.64963" lon="-3.93803">
        <ele>39</ele>
        <time>2023-10-31T20:55:29Z</time>
      </trkpt>
      <trkpt lat="48.65028" lon="-3.93854">
        <ele>39</ele>
        <time>2023-10-31T20:57:06Z</time>
      </trkpt>
      <trkpt lat="48.65093" lon="-3.93902">
        <ele>40</ele>
        <time>2023-10-31T20:58:43Z</time>
      </trkpt>
      <trkpt lat="48.6511" lon="-3.9393">
        <ele>40</ele>
        <time>2023-10-31T20:59:16Z</time>
      </trkpt>
      <trkpt lat="48.65096" lon="-3.94011">
        <ele>40</ele>
        <time>2023-10-31T21:00:30Z</time>
      </trkpt>
      <trkpt lat="48.65066" lon="-3.94163">
        <ele>38</ele>
        <time>2023-10-31T21:02:50Z</time>
      </trkpt>
      <trkpt lat="48.65147" lon="-3.94133">
        <ele>37</ele>
        <time>2023-10-31T21:04:41Z</time>
      </trkpt>
      <trkpt lat="48.65218" lon="-3.94113">
        <ele>34</ele>
        <time>2023-10-31T21:06:18Z</time>
      </trkpt>
      <trkpt lat="48.65289" lon="-3.94086">
        <ele>28</ele>
        <time>2023-10-31T21:07:55Z</time>
      </trkpt>
      <trkpt lat="48.65362" lon="-3.94077">
        <ele>20</ele>
        <time>2023-10-31T21:09:33Z</time>
      </trkpt>
      <trkpt lat="48.654" lon="-3.93984">
        <ele>16</ele>
        <time>2023-10-31T21:11:10Z</time>
      </trkpt>
      <trkpt lat="48.65454" lon="-3.93912">
        <ele>13</ele>
        <time>2023-10-31T21:12:46Z</time>
      </trkpt>
      <trkpt lat="48.65521" lon="-3.93868">
        <ele>11</ele>
        <time>2023-10-31T21:14:23Z</time>
      </trkpt>
      <trkpt lat="48.65581" lon="-3.93806">
        <ele>10</ele>
        <time>2023-10-31T21:16:00Z</time>
      </trkpt>
      <trkpt lat="48.65681" lon="-3.93647">
        <ele>5</ele>
        <time>2023-10-31T21:19:14Z</time>
      </trkpt>
      <trkpt lat="48.65733" lon="-3.93571">
        <ele>3</ele>
        <time>2023-10-31T21:20:50Z</time>
      </trkpt>
      <trkpt lat="48.65736" lon="-3.93462">
        <ele>3</ele>
        <time>2023-10-31T21:22:26Z</time>
      </trkpt>
      <trkpt lat="48.65739" lon="-3.93352">
        <ele>3</ele>
        <time>2023-10-31T21:24:03Z</time>
      </trkpt>
      <trkpt lat="48.65749" lon="-3.93244">
        <ele>3</ele>
        <time>2023-10-31T21:25:39Z</time>
      </trkpt>
      <trkpt lat="48.65764" lon="-3.93136">
        <ele>3</ele>
        <time>2023-10-31T21:27:17Z</time>
      </trkpt>
      <trkpt lat="48.6578" lon="-3.93029">
        <ele>4</ele>
        <time>2023-10-31T21:28:53Z</time>
      </trkpt>
      <trkpt lat="48.65848" lon="-3.92992">
        <ele>3</ele>
        <time>2023-10-31T21:30:30Z</time>
      </trkpt>
      <trkpt lat="48.65896" lon="-3.92911">
        <ele>9</ele>
        <time>2023-10-31T21:32:06Z</time>
      </trkpt>
      <trkpt lat="48.65927" lon="-3.92812">
        <ele>18</ele>
        <time>2023-10-31T21:33:42Z</time>
      </trkpt>
      <trkpt lat="48.65939" lon="-3.92703">
        <ele>22</ele>
        <time>2023-10-31T21:35:20Z</time>
      </trkpt>
      <trkpt lat="48.65961" lon="-3.926">
        <ele>23</ele>
        <time>2023-10-31T21:36:55Z</time>
      </trkpt>
      <trkpt lat="48.65936" lon="-3.92497">
        <ele>29</ele>
        <time>2023-10-31T21:38:32Z</time>
      </trkpt>
      <trkpt lat="48.6588" lon="-3.92426">
        <ele>33</ele>
        <time>2023-10-31T21:40:09Z</time>
      </trkpt>
      <trkpt lat="48.65849" lon="-3.92326">
        <ele>37</ele>
        <time>2023-10-31T21:41:47Z</time>
      </trkpt>
      <trkpt lat="48.65811" lon="-3.92233">
        <ele>38</ele>
        <time>2023-10-31T21:43:23Z</time>
      </trkpt>
      <trkpt lat="48.65774" lon="-3.92138">
        <ele>39</ele>
        <time>2023-10-31T21:45:00Z</time>
      </trkpt>
      <trkpt lat="48.65734" lon="-3.92046">
        <ele>41</ele>
        <time>2023-10-31T21:46:37Z</time>
      </trkpt>
      <trkpt lat="48.65685" lon="-3.91965">
        <ele>42</ele>
        <time>2023-10-31T21:48:14Z</time>
      </trkpt>
      <trkpt lat="48.65625" lon="-3.91902">
        <ele>43</ele>
        <time>2023-10-31T21:49:52Z</time>
      </trkpt>
      <trkpt lat="48.65591" lon="-3.91806">
        <ele>46</ele>
        <time>2023-10-31T21:51:28Z</time>
      </trkpt>
      <trkpt lat="48.65578" lon="-3.91697">
        <ele>49</ele>
        <time>2023-10-31T21:53:05Z</time>
      </trkpt>
      <trkpt lat="48.6554" lon="-3.91604">
        <ele>50</ele>
        <time>2023-10-31T21:54:42Z</time>
      </trkpt>
      <trkpt lat="48.65489" lon="-3.91526">
        <ele>52</ele>
        <time>2023-10-31T21:56:18Z</time>
      </trkpt>
      <trkpt lat="48.65432" lon="-3.91457">
        <ele>53</ele>
        <time>2023-10-31T21:57:56Z</time>
      </trkpt>
      <trkpt lat="48.65372" lon="-3.91398">
        <ele>52</ele>
        <time>2023-10-31T21:59:31Z</time>
      </trkpt>
      <trkpt lat="48.65317" lon="-3.91324">
        <ele>51</ele>
        <time>2023-10-31T22:01:09Z</time>
      </trkpt>
      <trkpt lat="48.65249" lon="-3.91281">
        <ele>49</ele>
        <time>2023-10-31T22:02:48Z</time>
      </trkpt>
      <trkpt lat="48.65187" lon="-3.91227">
        <ele>48</ele>
        <time>2023-10-31T22:04:23Z</time>
      </trkpt>
      <trkpt lat="48.65179" lon="-3.91117">
        <ele>52</ele>
        <time>2023-10-31T22:06:01Z</time>
      </trkpt>
      <trkpt lat="48.65147" lon="-3.91018">
        <ele>55</ele>
        <time>2023-10-31T22:07:38Z</time>
      </trkpt>
      <trkpt lat="48.65102" lon="-3.90931">
        <ele>55</ele>
        <time>2023-10-31T22:09:15Z</time>
      </trkpt>
      <trkpt lat="48.65066" lon="-3.90835">
        <ele>56</ele>
        <time>2023-10-31T22:10:53Z</time>
      </trkpt>
      <trkpt lat="48.65026" lon="-3.90742">
        <ele>57</ele>
        <time>2023-10-31T22:12:31Z</time>
      </trkpt>
      <trkpt lat="48.65" lon="-3.90639">
        <ele>54</ele>
        <time>2023-10-31T22:14:08Z</time>
      </trkpt>
      <trkpt lat="48.65066" lon="-3.90594">
        <ele>56</ele>
        <time>2023-10-31T22:15:44Z</time>
      </trkpt>
      <trkpt lat="48.65138" lon="-3.90606">
        <ele>59</ele>
        <time>2023-10-31T22:17:21Z</time>
      </trkpt>
      <trkpt lat="48.65205" lon="-3.90647">
        <ele>60</ele>
        <time>2023-10-31T22:18:57Z</time>
      </trkpt>
      <trkpt lat="48.65268" lon="-3.90702">
        <ele>60</ele>
        <time>2023-10-31T22:20:35Z</time>
      </trkpt>
      <trkpt lat="48.65318" lon="-3.90622">
        <ele>59</ele>
        <time>2023-10-31T22:22:12Z</time>
      </trkpt>
      <trkpt lat="48.6528" lon="-3.90527">
        <ele>60</ele>
        <time>2023-10-31T22:23:50Z</time>
      </trkpt>
      <trkpt lat="48.65308" lon="-3.90426">
        <ele>55</ele>
        <time>2023-10-31T22:25:26Z</time>
      </trkpt>
      <trkpt lat="48.65321" lon="-3.90317">
        <ele>36</ele>
        <time>2023-10-31T22:27:04Z</time>
      </trkpt>
      <trkpt lat="48.6537" lon="-3.90237">
        <ele>16</ele>
        <time>2023-10-31T22:28:40Z</time>
      </trkpt>
      <trkpt lat="48.65406" lon="-3.90225">
        <ele>13</ele>
        <time>2023-10-31T22:29:29Z</time>
      </trkpt>
      <trkpt lat="48.6544" lon="-3.9024">
        <ele>13</ele>
        <time>2023-10-31T22:30:16Z</time>
      </trkpt>
    </trkseg>
  </trk>
</gpx>